Regional Weather Roundup
Issued by NWS

Home | Current Version | Previous Version | Text Only | Print | Product List | Glossary On
Versions: 1 2 3 4 5 6 7 8 9 10 11 12 13 14 15 16 17 18 19 20 21 22 23 24 25 26 27
000
ASUS45 KBOU 171507
RWRCO

WEATHER ROUNDUP FOR COLORADO
NATIONAL WEATHER SERVICE DENVER/BOULDER CO
800 AM MST TUE JAN 17 2017

NOTE: "FAIR" INDICATES FEW OR NO CLOUDS BELOW 12000 FEET WITH NO
SIGNIFICANT WEATHER AND/OR OBSTRUCTIONS TO VISIBILITY.

COZ001>005-013-030-031-171600-
...NORTHWEST COLORADO...

CITY           SKY/WX    TMP DP  RH WIND       PRES   REMARKS
CRAIG          CLOUDY    14  12  92 CALM      30.23R FOG
HAYDEN         CLOUDY    14  10  85 CALM      30.19R
MEEKER         CLOUDY    16  12  84 CALM      30.21R
MOUNT WERNER   NOT AVBL
STEAMBOAT SPGS CLOUDY    11   9  89 NW5       30.19R WCI   3
WALDEN           N/A    N/A N/A N/A CALM      30.16R
$$

COZ006>008-011-171600-
...WEST CENTRAL VALLEYS...

CITY           SKY/WX    TMP DP  RH WIND       PRES   REMARKS
GRAND JUNCTION FAIR      23  21  92 CALM      30.19R
MONTROSE       CLOUDY    30  27  88 CALM      30.20R
EAGLE          CLOUDY    25  21  86 CALM      30.20R
RIFLE          FAIR      18  14  84 CALM      30.22R
DELTA          CLOUDY    32  27  83 SW3       30.20R
NUCLA          CLOUDY    32  27  80 CALM      30.20R
$$

COZ017>023-064>068-171600-
...SOUTHWEST COLORADO...

CITY           SKY/WX    TMP DP  RH WIND       PRES   REMARKS
DURANGO        CLOUDY    32  29  88 SE5       30.13R WCI  27
CORTEZ         CLOUDY    33  33 100 E3        30.14R FOG
PAGOSA SPRINGS CLOUDY    31  31 100 CALM      30.14R
TELLURIDE      CLOUDY    23  22  98 CALM      30.14S
WOLF CREEK PAS CLOUDY    18  18 100 S7        30.17R WCI   8
$$

COZ009-010-012-014-032>034-037-058>063-171600-
...CENTRAL COLORADO...

CITY           SKY/WX    TMP DP  RH WIND       PRES   REMARKS
ASPEN          MOCLDY    19  15  84 S7        30.14R WCI  10
BUENA VISTA    FAIR      10   7  88 CALM      30.11R
COPPER MTN     HAZE      21  16  79 MISG      30.12S VSB<1/4
BERTHOUD PASS  NOT AVBL
COTTONWOOD PAS FAIR      28  21  74 W7        30.09R WCI  21
GUNNISON       FOG       22  21  96 E7        30.16R VSB 1/2 WCI  13
KREMMLING      CLOUDY    21  18  86 CALM      30.20R
LEADVILLE      FAIR      12   8  84 NE7       30.11R WCI   1
MONARCH PASS   CLOUDY    19  16  86 MISG      30.21R
SALIDA         FAIR      26  22  87 N13       30.17R WCI  15
SUNLIGHT       FAIR      18  16  93 SW9       30.16R FOG     WCI   6
WILKERSON PASS FAIR      21  12  68 NW6       30.11R WCI  14
$$

COZ069>075-171600-
...SAN LUIS VALLEY/SANGRE DE CRISTO MOUNTAINS...

CITY           SKY/WX    TMP DP  RH WIND       PRES   REMARKS
ALAMOSA        FOG       20  18  92 CALM      30.12R VSB 1/4
LA VETA PASS   CLOUDY    27  23  86 NE29G35   30.07R FOG     WCI  11
SAGUACHE       LGT SNOW  28  28 100 CALM      30.14R
$$

COZ035-036-038>040-171600-
...NORTHERN COLORADO FRONT RANGE...

CITY           SKY/WX    TMP DP  RH WIND       PRES   REMARKS
DENVER INTL AP FAIR      24  19  81 SW9       30.04R WCI  14
DMNS CITY PARK   N/A     22  20  92 S3G10     30.06R
AURORA         PTCLDY    20  20  98 S10       30.04S WCI   9
FRONT RANGE AP PTCLDY    21  19  93 S9G17     30.04S WCI  11
ERIE MUNI ARPT FAIR      12  11  93 CALM      30.06R
BOULDER MUN AP FAIR      21  21 100 CALM      30.05R FOG
CENTENNIAL     FAIR      22  18  85 S10       30.04R WCI  11
BROOMFIELD     CLEAR     25  21  86 W5        30.04S WCI  19
FORT COLLINS   FAIR      21  18  86 CALM      30.06R
LONGMONT       FAIR      15  12  88 CALM      30.08R
$$

COZ041-046-047-076>085-087-088-171600-
...PIKES PEAK/PALMER DIVIDE AND SOUTHERN FOOTHILLS...

CITY           SKY/WX    TMP DP  RH WIND       PRES   REMARKS
COLO. SPRINGS  CLOUDY    29  28  96 NE3       30.08R FOG
A. F. ACADEMY  CLOUDY    28  27  93 CALM      30.06R
SCHRIEVER AFB  NOT AVBL
ELLICOTT       CLOUDY   N/A N/A N/A SW3       30.06R
FALCON         FOG       28  28 100 S5        30.07R VSB 1/4 WCI  23
FORT CARSON    FOG       30  28  93 E3        30.08R VSB 1/8
LIMON          FAIR      13  10  88 N3        30.09R
MONUMENT HILL  FOG       23  21  93 S9        30.06R VSB 1/2 WCI  13
TRINIDAD       FAIR      23  18  81 W14       30.08R WCI  11
$$

COZ042>045-048>051-090-091-171600-
...NORTHEAST COLORADO...

CITY           SKY/WX    TMP DP  RH WIND       PRES   REMARKS
GREELEY ARPT   FAIR      20  16  84 CALM      30.09R
AKRON          FAIR      23  12  62 SW10      30.06R WCI  12
BURLINGTON     FAIR      22  16  78 W9        30.10R WCI  12
WRAY           NOT AVBL
STERLING       FAIR      14  10  85 S3        30.08R
HOLYOKE        FAIR      14   9  79 W7        30.09R WCI   4
FORT MORGAN    FAIR      16  13  88 W7        30.09R WCI   7
$$

COZ086-089-092>099-171600-
...SOUTHEAST COLORADO...

CITY           SKY/WX    TMP DP  RH WIND       PRES   REMARKS
PUEBLO         FOG       30  28  92 CALM      30.08R VSB 1/4
LA JUNTA       FAIR      27  25  92 SW12      30.10R WCI  17
LAMAR          FAIR      27  25  92 SW9       30.11R WCI  18
SPRINGFIELD      N/A     24  23  96 SW5       30.11R WCI  18
$$




USA.gov is the U.S. government's official web portal to all federal, state and local government web resources and services.